Temperature
26 25 25 25 26 26 26 25 25 25 26 25 24 23 23 23 23 23 22 22 21 21 20 20 19 19 19 19 19 18 18 17 17 17 17 17 16 16 16 16 16 16 16 16
26 25 26 26 26 26 26 25 25 25 26 25 24 24 24 24 23 22 22 22 21 21 20 20 19 19 19 19 19 18 18 17 17 17 17 16 16 16 16 16 16 16 16 16
25 25 26 26 26 26 26 25 25 24 25 25 24 23 23 24 23 23 22 22 21 21 20 20 19 19 19 19 18 18 18 17 17 17 17 16 16 16 16 16 16 16 16 16
25 26 26 26 26 25 25 26 25 25 24 23 25 22 23 23 23 23 22 22 21 21 20 20 19 19 19 18 18 18 18 17 17 17 16 16 16 16 16 16 16 16 16 16
25 26 26 25 25 25 25 26 25 25 24 24 25 24 23 23 22 22 22 22 21 21 20 20 19 19 19 18 18 18 18 17 17 17 16 16 16 16 16 16 16 16 16 15
25 26 26 26 26 26 26 25 25 25 24 23 25 24 22 23 23 23 22 22 21 21 20 20 19 19 18 18 18 18 17 17 17 17 16 16 16 16 16 16 16 16 16 16
25 26 26 26 25 25 25 24 23 23 22 23 25 24 23 24 24 23 23 22 21 21 20 20 19 19 18 18 18 17 17 17 17 17 16 16 16 16 16 16 16 16 16 16
25 25 25 26 25 25 25 24 22 22 23 24 25 23 23 24 24 23 22 22 21 21 20 19 19 18 18 18 17 17 17 17 17 17 17 17 16 16 16 16 16 16 16 16
25 25 26 26 26 25 25 24 25 24 24 23 24 23 23 24 23 23 22 22 21 20 20 19 19 18 18 17 17 17 17 17 17 17 17 17 16 16 16 16 16 16 16 16
25 24 25 25 25 25 25 25 24 23 22 22 23 23 22 22 22 22 22 21 21 20 20 19 18 18 18 17 17 17 17 17 17 17 17 17 16 16 16 16 16 16 16 16
25 24 24 25 24 24 24 24 24 24 23 22 22 22 24 23 22 22 22 22 21 20 20 19 18 18 18 17 17 17 17 17 17 17 17 16 16 16 16 16 16 16 16 16
25 24 24 24 25 25 25 25 24 23 23 23 22 22 24 24 23 23 22 22 21 20 20 19 18 18 18 17 17 17 17 17 17 17 16 16 16 16 16 16 16 16 16 16
24 23 23 23 24 24 24 24 24 24 23 22 22 22 24 24 23 23 22 22 21 20 20 19 19 18 18 17 17 17 17 17 16 16 16 16 16 16 16 16 16 16 16 16
22 23 23 22 23 24 24 24 24 23 22 22 23 23 23 23 23 23 22 22 21 20 20 19 18 18 18 17 17 17 17 16 16 16 16 16 16 16 16 16 16 16 16 15
23 23 23 24 24 24 24 24 24 23 23 22 23 23 24 23 23 23 22 22 21 20 20 19 18 18 18 17 17 17 16 16 16 16 16 16 16 16 16 16 16 15 15 15
23 23 23 23 24 24 23 24 24 23 23 23 23 23 24 24 23 23 22 21 21 20 19 19 18 18 18 18 17 17 16 16 16 16 16 16 15 15 16 15 15 15 15 15
23 22 22 22 23 23 22 23 24 23 24 24 23 23 24 23 23 22 22 21 20 20 19 19 18 18 18 17 17 17 16 16 16 16 15 15 15 15 15 15 15 15 15 15
22 22 22 22 22 21 23 24 24 23 24 24 24 24 23 23 22 22 21 20 20 19 19 18 18 18 17 17 17 17 16 16 16 15 15 15 15 15 15 15 15 15 15 15
23 22 21 21 21 22 23 24 24 23 23 24 24 23 23 22 22 21 20 20 19 19 18 18 18 18 17 17 17 16 16 16 16 15 15 15 15 15 15 15 15 15 14 14
22 22 21 21 20 21 22 23 23 23 22 23 23 23 22 22 20 20 20 19 19 18 18 18 17 17 17 17 17 16 16 16 15 15 15 15 15 15 14 14 14 14 14 14
21 21 20 20 20 21 23 23 23 21 21 23 22 22 21 21 20 20 19 19 18 18 18 17 17 17 17 17 16 16 16 16 15 15 15 15 15 15 14 14 14 14 14 14
21 20 20 20 20 21 22 22 22 22 22 22 22 21 21 20 20 19 19 18 18 18 17 17 17 17 16 16 16 16 15 15 15 15 15 15 14 14 14 14 14 14 14 13
21 21 21 21 21 22 22 22 22 21 21 21 21 20 20 19 19 18 18 18 17 17 17 17 16 16 16 16 15 15 15 15 15 15 15 14 14 14 14 14 14 14 13 13
21 22 21 21 21 21 21 21 20 20 20 19 19 19 19 19 18 18 17 17 17 17 16 16 16 16 15 15 15 15 15 15 15 14 14 14 14 14 14 14 14 13 13 13
20 20 20 20 21 21 20 20 19 19 19 18 18 18 18 18 18 17 17 17 16 16 16 16 15 15 15 15 15 15 15 14 14 14 14 14 13 13 13 13 13 13 13 13
20 20 19 19 20 20 19 19 18 18 18 18 17 17 17 17 17 16 16 16 16 16 15 15 15 15 15 15 14 14 14 14 14 13 13 13 13 13 13 13 13 13 13 13
Wind_Speed
4 3 1 1 2 3 4 2 1 2 2 1 3 4 4 4 3 3 4 3 5 6 6 5 5 4 4 4 5 7 5 5 5 3 2 2 2 2 3 3 4 4 5 6
5 1 1 1 2 4 4 3 0 2 2 1 2 4 4 5 4 3 3 4 4 4 6 5 4 4 4 4 3 5 5 6 5 3 2 2 2 2 2 2 4 5 5 5
1 1 1 3 3 4 2 2 2 2 3 4 3 2 5 6 5 4 2 3 5 5 6 6 4 4 4 4 4 4 5 6 5 4 2 2 2 1 2 3 2 3 5 5
1 1 3 3 2 4 3 2 3 4 5 4 5 2 4 6 6 5 3 3 5 5 5 6 5 4 4 4 4 4 4 5 5 4 2 1 2 2 2 2 2 2 4 4
2 2 3 3 2 3 3 4 6 7 7 7 5 3 3 5 5 5 4 4 5 6 5 6 5 4 4 4 3 4 4 5 4 4 2 1 2 2 2 3 3 2 2 3
3 2 2 2 3 3 4 6 8 8 6 5 4 2 2 3 3 4 4 4 6 6 6 5 5 5 4 5 4 3 4 4 3 3 3 2 2 2 2 2 2 2 2 1
6 6 3 2 4 3 5 5 3 3 4 2 1 2 3 5 4 4 4 4 6 6 6 6 5 5 4 4 3 3 4 3 3 3 3 3 3 3 2 3 3 3 2 2
5 5 6 4 4 4 5 5 3 3 2 1 1 2 5 8 7 6 6 5 6 6 5 5 5 5 5 4 4 3 3 3 2 3 3 3 3 2 2 2 2 3 3 2
4 1 5 3 2 4 4 4 4 5 6 4 1 4 5 6 6 6 6 6 6 6 5 5 5 5 5 4 4 3 3 3 3 3 2 2 2 2 1 2 2 2 2 3
5 2 2 3 4 5 6 6 4 3 3 4 1 3 3 4 3 4 5 5 5 6 5 5 5 4 4 4 3 4 3 3 3 2 2 2 2 2 1 0 1 2 3 3
7 5 4 4 4 4 5 5 4 4 3 3 3 2 5 6 5 4 4 5 5 5 5 5 4 4 4 4 4 3 2 2 2 2 2 3 2 2 2 1 1 1 2 3
5 5 5 5 4 4 5 5 5 3 3 3 3 1 5 6 6 4 4 5 6 5 5 5 4 4 3 4 4 3 3 3 2 2 2 1 2 3 2 2 2 2 2 2
3 5 5 4 5 5 4 5 6 5 4 5 4 1 5 6 5 5 4 5 5 5 4 4 4 3 3 3 3 3 3 3 2 2 2 2 2 3 3 3 2 2 2 2
3 7 7 5 3 2 4 6 6 6 4 6 5 2 4 4 4 4 4 4 4 5 4 4 4 4 3 3 3 3 2 2 2 2 2 2 2 2 2 2 2 1 2 2
5 8 8 8 6 6 7 7 7 8 7 7 6 4 2 2 2 3 4 3 4 4 3 4 4 4 4 3 3 3 2 2 3 2 3 3 2 2 2 3 2 2 2 2
6 7 8 9 8 7 10 10 9 9 8 8 8 6 3 0 0 1 2 3 3 3 3 3 3 3 3 3 3 3 3 3 3 4 3 2 2 2 2 2 3 3 2 2
7 8 8 8 7 8 10 9 9 7 8 8 8 4 0 1 1 1 1 3 3 3 3 2 3 2 3 2 2 3 3 3 3 3 3 3 3 2 2 3 3 3 3 2
8 8 6 7 8 10 4 2 3 6 7 6 5 3 1 1 0 1 2 1 2 3 3 2 1 2 2 2 2 2 3 3 3 3 3 3 3 3 2 2 3 3 3 3
9 8 6 6 8 9 5 4 3 5 7 4 3 2 0 1 1 2 2 2 2 2 2 1 1 2 2 2 2 2 3 2 2 3 3 3 4 4 4 3 3 3 3 3
10 9 8 7 8 8 2 3 1 4 6 3 2 1 0 1 2 1 2 2 1 1 1 1 1 1 2 2 2 2 2 3 3 3 3 4 4 4 5 5 4 3 3 3
10 10 11 11 10 6 2 4 2 4 1 2 0 0 1 2 1 1 1 1 1 1 1 1 1 2 1 1 1 2 2 2 2 2 2 3 4 4 4 4 4 4 4 4
8 7 10 10 11 7 5 4 4 1 2 2 2 1 1 1 1 1 1 1 1 1 1 1 1 2 2 2 2 2 1 1 1 1 2 3 4 4 4 4 4 4 4 4
8 6 4 5 3 1 2 1 2 3 3 3 3 2 2 1 1 1 1 1 1 2 1 1 1 2 2 2 2 2 1 1 1 1 2 3 4 4 4 4 5 4 4 4
6 6 7 7 5 4 3 3 1 2 4 4 4 3 3 2 2 2 2 1 1 2 1 1 2 3 2 2 2 2 1 2 2 3 3 2 3 3 3 3 3 3 4 4
5 5 8 9 7 4 4 3 3 2 3 4 4 4 4 3 3 2 2 2 2 2 2 2 3 3 3 3 3 2 2 2 3 2 2 1 1 3 3 2 2 4 4 5
8 8 8 7 6 5 4 4 4 4 5 5 5 5 5 4 3 4 4 2 2 2 2 2 2 3 4 3 3 3 2 3 3 2 2 2 2 2 3 3 2 1 3 4
Wind_Direction
213 223 240 322 339 319 309 312 72 97 131 162 127 121 131 141 151 148 147 142 143 138 125 115 121 121 125 117 116 118 126 109 96 86 75 76 68 61 53 56 66 56 51 67
227 228 351 324 287 277 280 289 72 122 133 199 148 142 135 132 139 148 152 146 132 126 129 121 125 129 132 125 118 120 114 109 100 95 106 110 99 95 96 56 46 46 52 60
216 63 166 245 255 279 284 330 345 323 284 243 210 172 146 135 124 123 136 141 137 137 143 139 142 123 127 127 122 114 116 113 112 106 77 89 96 88 89 83 61 49 53 48
193 275 269 265 281 300 307 349 285 268 271 251 224 204 159 148 137 132 137 144 139 134 131 129 133 134 132 130 128 119 114 111 107 104 81 90 103 106 122 124 120 95 78 68
187 190 251 277 305 308 320 310 279 272 271 276 242 219 148 143 140 143 146 154 147 138 137 134 131 129 119 111 113 112 109 103 103 105 105 73 89 102 105 114 114 108 88 75
233 223 258 294 287 275 277 274 263 251 257 268 249 208 127 139 135 143 146 149 148 142 139 135 127 121 109 103 105 111 111 107 113 130 147 144 128 132 124 120 133 135 122 109
209 197 193 249 253 234 265 282 281 229 216 238 154 118 94 99 99 117 137 145 146 141 141 139 135 135 123 122 121 121 120 127 148 170 175 159 163 166 150 142 159 151 141 143
236 195 180 197 254 271 251 261 292 312 304 324 151 116 100 94 89 95 114 125 129 126 130 135 137 138 136 139 145 156 145 154 172 199 192 167 161 171 143 151 158 149 147 147
285 134 133 154 256 283 282 263 277 293 294 292 163 116 112 99 99 100 110 118 120 130 131 131 130 137 143 152 161 167 161 169 194 212 188 162 157 154 165 178 152 140 143 142
295 273 182 177 227 236 274 301 299 277 299 295 232 150 154 136 117 117 123 130 135 137 136 135 141 146 147 149 153 164 172 183 198 219 193 164 160 166 181 143 132 145 146 140
281 263 210 189 221 249 233 250 271 290 289 291 311 63 102 126 126 134 135 140 139 133 133 136 143 149 153 146 154 164 162 180 206 213 191 177 172 169 161 155 149 153 160 163
261 276 250 216 201 233 268 272 274 276 293 284 285 125 129 124 132 135 126 126 126 131 136 137 140 150 154 154 164 166 173 187 196 209 196 188 163 167 181 178 183 186 175 168
304 264 254 208 192 197 239 257 275 285 285 278 276 149 132 125 127 123 122 128 130 134 140 138 138 148 158 157 163 174 181 177 179 187 199 187 193 179 178 176 166 175 165 161
291 263 265 270 303 271 241 246 256 265 265 276 273 242 167 145 143 138 141 144 139 147 151 144 152 164 171 177 180 175 181 176 173 176 199 192 194 179 175 158 152 162 157 155
251 262 271 279 282 279 273 264 254 253 259 269 283 288 285 156 157 149 147 150 147 150 153 152 164 173 178 182 178 173 177 174 182 190 204 203 200 179 169 160 162 158 148 151
246 261 265 269 268 265 263 258 253 252 260 267 275 278 296 233 162 154 153 159 154 149 158 161 166 169 186 185 183 183 178 184 189 191 205 193 183 185 176 175 160 148 137 125
232 250 262 266 262 267 257 245 241 247 253 259 263 268 293 256 240 212 152 154 153 153 163 173 179 188 196 189 181 188 187 184 185 189 191 177 177 187 180 170 149 149 150 142
249 256 259 262 257 257 251 210 237 256 258 261 267 275 235 232 323 115 107 117 135 148 157 170 199 199 206 197 188 185 166 170 176 186 188 172 172 174 170 158 163 168 166 158
242 249 258 258 258 259 241 208 216 261 270 266 268 264 190 113 220 171 111 95 107 131 141 165 227 217 200 204 185 169 167 174 187 192 191 179 175 179 179 182 185 181 169 166
228 236 244 253 258 263 223 145 163 264 262 238 241 207 138 251 245 222 117 122 128 123 119 189 245 211 188 196 182 184 195 199 202 203 203 191 182 182 189 194 188 178 167 161
214 225 234 247 254 261 166 141 184 246 271 101 149 111 208 271 300 322 155 131 132 143 172 220 211 179 192 189 182 208 229 221 206 194 196 184 176 184 189 190 187 174 166 165
228 227 229 236 246 244 160 191 231 316 51 49 17 356 311 310 10 36 114 143 159 169 197 221 197 182 181 179 180 218 232 227 180 178 186 188 183 184 187 182 185 178 172 174
230 241 255 246 248 201 183 254 309 350 343 351 355 351 325 300 302 240 217 213 211 215 222 215 204 197 185 178 177 203 218 188 195 195 200 199 193 185 181 185 184 179 183 187
240 247 255 263 246 237 249 264 332 334 337 345 335 333 311 273 239 226 233 244 246 232 220 225 210 203 204 198 198 194 188 206 207 207 201 201 193 184 177 176 179 181 187 192
264 258 255 259 268 269 242 258 281 300 311 315 317 311 300 288 266 263 254 252 262 243 222 227 220 209 208 202 200 183 185 204 212 210 190 183 183 182 180 169 184 188 187 190
255 250 251 259 273 276 280 293 289 281 281 286 287 287 289 286 261 263 264 256 244 246 251 243 238 215 212 201 196 187 195 205 205 205 202 202 212 192 178 168 160 145 180 174
Height
1514 1516 1518 1516 1514 1515 1515 1517 1520 1519 1515 1518 1522 1525 1524 1525 1527 1528 1530 1532 1533 1536 1538 1539 1541 1542 1544 1545 1546 1546 1547 1548 1549 1549 1550 1550 1551 1552 1552 1552 1552 1553 1553 1553
1514 1517 1514 1513 1513 1513 1515 1518 1519 1517 1514 1517 1521 1523 1522 1524 1526 1528 1529 1531 1533 1535 1537 1539 1541 1542 1544 1545 1546 1546 1548 1548 1549 1550 1550 1551 1551 1552 1552 1552 1553 1553 1553 1553
1516 1516 1513 1513 1514 1515 1516 1519 1520 1521 1517 1515 1520 1525 1523 1523 1525 1528 1529 1531 1532 1534 1536 1538 1540 1542 1543 1545 1546 1547 1548 1548 1549 1550 1551 1551 1551 1551 1552 1552 1552 1553 1553 1554
1514 1513 1513 1514 1515 1516 1521 1515 1516 1519 1523 1525 1520 1535 1525 1522 1524 1526 1529 1530 1532 1534 1536 1538 1540 1541 1543 1544 1546 1547 1548 1548 1549 1550 1550 1551 1551 1552 1552 1552 1553 1553 1554 1554
1514 1513 1514 1516 1516 1515 1518 1515 1515 1517 1520 1522 1517 1526 1528 1520 1525 1525 1527 1529 1531 1533 1535 1537 1539 1541 1542 1544 1546 1547 1548 1548 1549 1550 1550 1551 1551 1552 1552 1553 1553 1553 1553 1554
1513 1512 1513 1514 1514 1514 1515 1516 1515 1515 1519 1531 1518 1524 1532 1523 1522 1523 1525 1528 1530 1532 1535 1537 1539 1541 1542 1543 1545 1546 1547 1548 1549 1549 1550 1551 1551 1552 1552 1552 1553 1553 1553 1553
1514 1512 1512 1514 1516 1515 1516 1524 1532 1534 1535 1531 1511 1521 1527 1518 1518 1520 1524 1526 1529 1532 1534 1536 1538 1540 1542 1543 1544 1545 1547 1547 1548 1549 1550 1551 1551 1552 1552 1552 1552 1553 1553 1553
1517 1519 1512 1513 1515 1518 1516 1521 1537 1543 1537 1528 1515 1525 1523 1516 1519 1521 1523 1526 1529 1531 1534 1536 1538 1539 1541 1542 1543 1545 1546 1546 1547 1548 1549 1550 1551 1551 1552 1552 1552 1553 1553 1553
1515 1517 1509 1511 1512 1514 1517 1518 1515 1525 1525 1529 1524 1522 1520 1517 1519 1521 1524 1526 1529 1531 1534 1536 1537 1539 1540 1541 1542 1544 1545 1546 1546 1548 1549 1549 1550 1551 1551 1552 1552 1553 1553 1553
1510 1518 1512 1511 1513 1513 1514 1514 1518 1526 1537 1540 1529 1526 1529 1523 1523 1522 1524 1526 1529 1531 1533 1535 1537 1538 1539 1540 1542 1543 1544 1544 1545 1546 1548 1548 1549 1549 1550 1551 1552 1552 1553 1553
1510 1516 1516 1514 1516 1517 1516 1517 1517 1521 1523 1537 1541 1535 1516 1519 1520 1522 1523 1525 1528 1530 1533 1535 1536 1537 1539 1540 1541 1542 1542 1543 1544 1545 1546 1547 1548 1548 1549 1549 1550 1551 1552 1552
1511 1514 1517 1514 1509 1509 1512 1514 1517 1529 1529 1525 1532 1533 1513 1516 1519 1521 1523 1525 1527 1530 1532 1534 1535 1537 1538 1539 1540 1540 1541 1542 1542 1543 1544 1545 1545 1546 1547 1548 1549 1549 1550 1551
1514 1517 1523 1522 1519 1514 1514 1513 1514 1517 1522 1527 1533 1531 1513 1515 1518 1520 1522 1524 1527 1529 1531 1533 1534 1536 1537 1538 1538 1539 1540 1540 1541 1541 1542 1542 1543 1544 1545 1546 1547 1548 1549 1550
1517 1516 1521 1527 1520 1514 1516 1515 1514 1518 1527 1527 1524 1521 1516 1515 1517 1519 1521 1523 1525 1528 1530 1532 1533 1534 1535 1536 1537 1538 1538 1538 1539 1539 1540 1540 1541 1542 1543 1544 1545 1546 1547 1548
1515 1517 1513 1511 1509 1510 1512 1513 1513 1516 1517 1523 1519 1517 1513 1513 1515 1518 1520 1522 1524 1527 1528 1530 1531 1532 1534 1534 1535 1536 1536 1536 1536 1537 1537 1538 1539 1540 1541 1542 1543 1544 1545 1546
1513 1515 1514 1514 1509 1510 1512 1510 1511 1512 1512 1514 1515 1515 1510 1512 1514 1516 1519 1521 1523 1525 1527 1528 1529 1530 1531 1532 1533 1533 1533 1534 1534 1535 1535 1536 1536 1537 1538 1539 1541 1542 1542 1543
1512 1514 1518 1518 1511 1512 1515 1507 1507 1508 1508 1510 1513 1512 1509 1512 1513 1516 1517 1519 1521 1523 1525 1526 1527 1528 1529 1530 1530 1530 1531 1531 1532 1532 1533 1534 1534 1535 1536 1537 1538 1539 1540 1541
1511 1513 1515 1516 1518 1526 1510 1499 1501 1505 1505 1504 1505 1506 1508 1511 1513 1515 1517 1518 1520 1521 1523 1524 1525 1526 1527 1527 1528 1528 1528 1529 1529 1530 1530 1531 1532 1533 1534 1535 1536 1537 1538 1539
1508 1512 1516 1517 1519 1513 1504 1499 1501 1505 1505 1503 1504 1506 1508 1510 1513 1514 1516 1517 1518 1520 1521 1522 1523 1524 1524 1525 1525 1525 1526 1526 1527 1527 1527 1528 1529 1530 1531 1532 1533 1534 1535 1536
1505 1507 1514 1515 1521 1519 1505 1499 1500 1504 1508 1502 1503 1505 1508 1510 1513 1514 1514 1515 1516 1517 1519 1520 1520 1521 1522 1522 1523 1523 1523 1523 1524 1524 1524 1525 1526 1527 1528 1529 1530 1531 1532 1533
1507 1509 1513 1514 1515 1506 1499 1499 1502 1513 1509 1502 1503 1505 1508 1509 1511 1512 1512 1513 1514 1515 1516 1517 1518 1518 1519 1519 1520 1520 1520 1521 1521 1521 1522 1522 1523 1524 1525 1526 1528 1529 1529 1530
1502 1506 1508 1508 1513 1510 1498 1499 1502 1503 1501 1502 1504 1505 1507 1508 1509 1509 1511 1512 1512 1513 1514 1515 1515 1516 1516 1517 1517 1518 1518 1518 1518 1519 1519 1519 1520 1521 1522 1523 1524 1526 1527 1527
1496 1498 1499 1500 1502 1497 1496 1498 1499 1501 1502 1502 1504 1505 1506 1507 1508 1509 1509 1510 1510 1511 1511 1512 1513 1513 1514 1514 1515 1515 1515 1515 1516 1516 1516 1516 1517 1518 1519 1519 1520 1521 1523 1524
1492 1493 1495 1496 1494 1495 1496 1497 1498 1500 1501 1502 1503 1504 1505 1505 1506 1507 1507 1508 1508 1508 1509 1509 1510 1510 1511 1511 1512 1512 1512 1513 1513 1513 1513 1514 1514 1514 1515 1516 1517 1518 1519 1520
1492 1492 1493 1493 1493 1494 1494 1496 1497 1498 1500 1501 1501 1502 1503 1503 1504 1504 1505 1505 1505 1506 1506 1506 1507 1507 1508 1508 1509 1509 1509 1509 1509 1510 1510 1510 1511 1511 1512 1513 1514 1515 1516 1516
1490 1491 1493 1493 1492 1492 1493 1494 1495 1496 1497 1498 1499 1499 1500 1501 1501 1502 1502 1503 1503 1503 1503 1503 1504 1504 1505 1505 1506 1506 1506 1506 1506 1507 1507 1507 1508 1508 1509 1510 1511 1511 1513 1513